Location: Cartignies
(50.0929°N, 3.8447°E)
Time: 14:25:12
(UTC+00:00)

OPS 6432 - Pass Details

Date: 12 January 2026
Orbit: 421 x 1449 km, 63.3° (Epoch: 16 February)

Event Time Altitude Azimuth Distance (km) Brightness Sun altitude
Rises 17:39:33 0° 318° (NW) 2,602 8.6 -14.3°
Reaches altitude 10° 17:41:51 10° 322° (NW) 1,626 7.5 -14.6°
Maximum altitude 17:45:19 58° 43° (NE) 509 4.3 -15.2°
Enters shadow 17:46:48 28° 112° (ESE) 829 5.3 -15.4°
